Regional Weather Roundup
Issued by NWS

Home | Current Version | Previous Version | Graphics & Text | Print | Product List | Glossary On
Versions: 1 2 3 4 5 6 7 8 9 10 11 12 13 14 15 16 17 18 19 20 21 22 23 24 25 26 27 28 29 30 31 32 33 34 35 36 37 38 39 40 41 42 43 44 45 46 47 48 49 50
000
ASUS43 KLMK 010810
RWRKY
KENTUCKY REGIONAL WEATHER ROUNDUP
NATIONAL WEATHER SERVICE LOUISVILLE KY
300 AM EST SUN FEB 01 2015

NOTE "FAIR" INDICATES FEW OR NO CLOUDS BELOW 12,000 FEET
WITH NO SIGNIFICANT WEATHER AND/OR OBSTRUCTIONS TO VISIBILITY.

KYZ001>023-026-027-061>063-070>075-010900-
WESTERN AND SOUTH CENTRAL KENTUCKY

CITY           SKY/WX    TMP DP  RH WIND       PRES   REMARKS
PADUCAH        CLOUDY    44  20  38 SE9       30.00F
HENDERSON      CLOUDY    39  23  52 E6        30.04F WCI  35
OWENSBORO      CLOUDY    40  24  53 SE9       30.07F WCI  34
HOPKINSVILLE   CLOUDY    45  16  31 S2        30.07R
BOWLING GREEN  CLOUDY    39  21  48 E5        30.11F
GLASGOW        CLOUDY    38  23  53 CALM      30.13S
$$

KYZ024-025-028>034-038-045-046-053-010900-
NORTH CENTRAL KENTUCKY

CITY           SKY/WX    TMP DP  RH WIND       PRES   REMARKS
LOUISVILLE/SDF CLOUDY    39  20  46 E7        30.12F WCI  34
LOUISVILLE/LOU CLOUDY    39  19  44 E8        30.13F WCI  33
FORT KNOX      CLOUDY    37  22  54 E8        30.09F WCI  31
$$

KYZ035>037-039>044-047>052-055>060-089>105-010900-
NORTHEAST KENTUCKY

CITY           SKY/WX    TMP DP  RH WIND       PRES   REMARKS
LEXINGTON      CLOUDY    35  19  52 E6        30.18F WCI  30
COVINGTON      CLOUDY    34  29  82 E5        30.15F WCI  30
FRANKFORT      CLOUDY    33  22  63 SE5       30.16F WCI  29
$$

KYZ054-064>069-076>088-106>120-010900-
SOUTHEAST KENTUCKY

CITY           SKY/WX    TMP DP  RH WIND       PRES   REMARKS
JACKSON        CLOUDY    36  12  37 E3        30.18F
LONDON         CLOUDY    36  18  48 CALM      30.17F
SOMERSET       MOCLDY    34  19  55 CALM      30.18F
MIDDLESBORO    CLOUDY    36  25  66 CALM      30.20F
MONTICELLO     CLOUDY    42   8  24 CALM      30.18F
$$



USA.gov is the U.S. government's official web portal to all federal, state and local government web resources and services.